Regional Weather Roundup
Issued by NWS Little Rock, AR

Home | Current Version | Previous Version | Text Only | Print | Product List | Glossary Off
Versions: 1 2 3 4 5 6 7 8 9 10 11 12 13 14 15 16 17 18 19 20 21 22 23 24 25 26 27 28 29 30 31 32 33 34 35 36 37 38 39 40 41 42 43 44 45 46 47 48 49 50

000
ASUS44 KLZK 251405
RWRLZK

WEATHER ROUNDUP FOR ARKANSAS
NATIONAL WEATHER SERVICE LITTLE ROCK AR
900 AM CDT MON MAY 25 2015

NOTE: "FAIR" INDICATES FEW OR NO CLOUDS BELOW 12,000 FEET WITH NO
SIGNIFICANT WEATHER AND/OR OBSTRUCTIONS TO VISIBILITY.

ARZ001-003-010-029-251500-
NORTHWEST ARKANSAS

CITY           SKY/WX    TMP DP  RH WIND       PRES   REMARKS
FAYETTEVILLE   CLOUDY    69  66  90 S8        29.99R
FORT SMITH     CLOUDY    69  65  86 NE6       29.97R
HARRISON       CLOUDY    68  66  93 E6        30.01R
BENTONVILLE    PTSUNNY   72  64  78 S12G17    29.98S
ROGERS         PTSUNNY   70  66  87 S7        30.00R
SILOAM SPGS    MOSUNNY   70  63  78 S10G17    29.98S
HIGHFILL       MOSUNNY   70  67  90 S14       29.97R
SPRINGDALE     MOSUNNY   70  66  88 S9        30.00R
$$

ARZ004-005-016-251500-
NORTH CENTRAL ARKANSAS

CITY           SKY/WX    TMP DP  RH WIND       PRES   REMARKS
BATESVILLE     PTSUNNY   73  70  88 SE5       30.03R
FLIPPIN        CLOUDY    72  68  88 SE5       29.99S
MTN HOME       CLOUDY    70  67  90 SE7       30.01R
$$

ARZ040-041-251500-
WEST CENTRAL ARKANSAS

CITY           SKY/WX    TMP DP  RH WIND       PRES   REMARKS
MENA           CLOUDY    72  70  94 CALM      30.01R
MOUNT IDA      CLOUDY    70  66  87 CALM      29.99R FOG
$$

ARZ009-017-025-026-028-251500-
NORTHEAST ARKANSAS

CITY           SKY/WX    TMP DP  RH WIND       PRES   REMARKS
CORNING        PTSUNNY   72  72 100 S12       30.05R
JONESBORO      CLOUDY    71  69  93 S7        30.05R
NEWPORT        CLOUDY    73  70  91 S13       30.05R
WALNUT RIDGE   PTSUNNY   72  68  88 S13       30.05R
BLYTHEVILLE    CLOUDY    72  32  23 SW9       30.08
$$

ARZ022-023-033-042-044-251500-
CENTRAL ARKANSAS

CITY           SKY/WX    TMP DP  RH WIND       PRES   REMARKS
LITTLE ROCK    CLOUDY    73  68  84 S7        30.03R
N LITTLE ROCK  CLOUDY    71  70  97 S8        30.03R
SEARCY         CLOUDY    73  69  87 S10       30.04S
HOT SPRINGS    CLOUDY    70  66  87 SE5       30.02R
RUSSELLVILLE   CLOUDY    72  68  87 CALM      30.01R
CLINTON        PTSUNNY   73  68  83 S7        30.03R
$$

ARZ036-251500-
EAST ARKANSAS

CITY           SKY/WX    TMP DP  RH WIND       PRES   REMARKS
WEST MEMPHIS   CLOUDY    71  70  96 S10       30.06R
$$

ARZ050-053-066-070-073-251500-
SOUTHWEST ARKANSAS

CITY           SKY/WX    TMP DP  RH WIND       PRES   REMARKS
ARKADELPHIA    PTSUNNY   72  72 100 VRB3      30.03R
CAMDEN         CLOUDY    73  66  78 CALM      30.02S
TEXARKANA      CLOUDY    73  68  84 S10       30.00S
EL DORADO      CLOUDY    72  68  87 S9        30.03R
DE QUEEN       CLOUDY    73  69  87 S6        29.98R
$$

ARZ056-057-069-251500-
SOUTHEAST ARKANSAS

CITY           SKY/WX    TMP DP  RH WIND       PRES   REMARKS
PINE BLUFF     CLOUDY    72  68  87 S8        30.04R
STUTTGART      CLOUDY    73  66  78 MISG      30.05R
MONTICELLO     CLOUDY    72  69  90 S7        30.05R

$$




USA.gov is the U.S. government's official web portal to all federal, state and local government web resources and services.